Terminal Aerodrome Forecast
Issued by NWS Wilmington, OH

Current Version | Previous Version | Graphics & Text | Print | Product List | Glossary On
Versions: 1 2 3 4 5 6 7 8 9 10 11 12 13 14 15 16 17 18 19 20 21
000
FTUS41 KILN 072000 AAA
TAFILN
TAF AMD
KILN 072035Z 0721/0818 23014G24KT P6SM VCTS BKN035CB
      TEMPO 0722/0724 5SM -TSRA BR OVC020CB
     FM080000 22012KT P6SM VCSH BKN040
     FM080800 20010KT P6SM VCSH BKN025
     FM081300 21012KT 5SM -SHRA VCTS BKN025CB
     FM081600 22012G18KT P6SM BKN025=

USA.gov is the U.S. government's official web portal to all federal, state and local government web resources and services.